• Processing (Info)

  • MPEC 2022-L27 : 2022 LJ

    The following Minor Planet Electronic Circular may be linked-to from your own Web pages, but must not otherwise be redistributed electronically.

    A form allowing access to any MPEC is at the bottom of this page.


    Read MPEC 2022-L26 Read MPEC 2022-L28


    M.P.E.C. 2022-L27                                  Issued 2022 June 4, 13:02 UT
    
         The Minor Planet Electronic Circulars contain information on unusual
             minor planets and routine data on comets.  They are published
        on behalf of Division F of the International Astronomical Union by the
              Minor Planet Center, Smithsonian Astrophysical Observatory,
                              Cambridge, MA 02138, U.S.A.
    
                 Prepared using the Tamkin Foundation Computer Network
    
                                  MPC@CFA.HARVARD.EDU
                URL https://www.minorplanetcenter.net/    ISSN 1523-6714
    
                                     2022 LJ                                 
    
    
    Observations:
         K22L00J* C2022 06 03.53107615 23 01.70 +23 18 06.8          17.7 GXEL027381
         K22L00J  C2022 06 03.53118115 23 02.21 +23 17 53.1          17.5 GXEL027381
         K22L00J  C2022 06 03.53131915 23 02.89 +23 17 36.7          17.0 GXEL027381
         K22L00J  C2022 06 03.53141215 23 03.39 +23 17 24.1          17.0 GXEL027381
         K22L00J  C2022 06 03.57671315 26 43.26 +21 44 38.7          17.1 GXEL027381
         K22L00J  C2022 06 03.57677115 26 43.50 +21 44 32.8          17.8 GXEL027381
         K22L00J  C2022 06 03.61192115 29 19.40 +20 37 11.6          17.1 GXEL027381
         K22L00J  C2022 06 03.61201415 29 19.88 +20 36 58.9          17.4 GXEL027381
         K22L00J  C2022 06 03.61335615 29 25.58 +20 34 29.5          17.4 GXEL027381
         K22L00J  C2022 06 03.61346115 29 25.91 +20 34 19.6          17.7 GXEL027381
         K22L00J  C2022 06 03.70769 15 35 35.09 +17 52 36.2          17.9 RrEL027P93
         K22L00J  C2022 06 03.70929 15 35 40.80 +17 50 02.5          18.0 RrEL027P93
         K22L00J  C2022 06 03.71003 15 35 43.42 +17 48 52.5          17.7 RrEL027P93
         K22L00J  C2022 06 03.71077 15 35 46.01 +17 47 42.6          18.1 RrEL027P93
         K22L00J  C2022 06 03.71150 15 35 48.63 +17 46 32.5          17.9 RrEL027P93
         K22L00J  C2022 06 03.71224 15 35 51.24 +17 45 22.6          18.0 RrEL027P93
         K22L00J KC2022 06 03.86423 15 44 43.01 +14 14 02.4          18.6 GVEL027K96
         K22L00J KC2022 06 03.86455915 44 47.14 +14 12 25.8          18.0 GVEL027203
         K22L00J KC2022 06 03.86607 15 44 47.86 +14 11 51.9          17.3 GVEL027K96
         K22L00J KC2022 06 03.87009115 45 01.37 +14 05 41.2          17.8 GVEL027203
         K22L00J KC2022 06 03.87618615 45 16.86 +13 58 18.8          18.1 GVEL027203
         K22L00J KC2022 06 03.87667215 45 20.25 +13 57 57.3          17.9 GXEL027C95
         K22L00J KC2022 06 03.88158515 45 30.46 +13 51 50.2          18.0 GVEL027203
         K22L00J KC2022 06 03.88379615 45 38.23 +13 49 26.0          17.9 GXEL027C95
         K22L00J KC2022 06 03.89091415 45 55.74 +13 41 00.3          17.9 GXEL027C95
         K22L00J KC2022 06 03.89794015 46 12.92 +13 32 46.1          17.4 GXEL027C95
         K22L00J KC2022 06 03.90463515 46 29.00 +13 24 59.1          19.0 GXEL027C95
         K22L00J KC2022 06 03.96035215 48 40.15 +12 23 09.9          17.7 GXEL027958
         K22L00J KC2022 06 03.96309215 48 46.01 +12 20 14.9          17.5 GXEL027958
         K22L00J KC2022 06 03.96416515 48 48.41 +12 19 06.9          18.3 GXEL027958
         K22L00J KC2022 06 03.97557915 49 07.75 +12 06 43.1                VEL027204
         K22L00J KC2022 06 03.98006015 49 17.31 +12 02 02.5                VEL027204
         K22L00J KC2022 06 03.98454515 49 26.83 +11 57 23.8          18.1 GVEL027204
         K22L00J KC2022 06 03.99300615 50 17.419+12 00 02.56         18.9 GXEL027Y00
         K22L00J KC2022 06 03.99635615 50 24.204+11 56 37.90         17.7 GXEL027Y00
         K22L00J KC2022 06 03.99965615 50 30.833+11 53 17.95         17.5 GXEL027Y00
         K22L00J KC2022 06 04.11590515 54 24.70 +09 54 34.6          18.1 VuEL027H21
         K22L00J KC2022 06 04.11654315 54 25.78 +09 54 02.0          18.3 VuEL027H21
         K22L00J KC2022 06 04.11728615 54 27.04 +09 53 23.9          18.0 VuEL027H21
         K22L00J KC2022 06 04.11803015 54 28.31 +09 52 45.7          18.1 VuEL027H21
         K22L00J KC2022 06 04.11873715 54 29.51 +09 52 09.7          18.3 VuEL027H21
         K22L00J KC2022 06 04.11944615 54 30.71 +09 51 33.5          18.3 VuEL027H21
         K22L00J KC2022 06 04.12015315 54 31.92 +09 50 57.3          18.3 VuEL027H21
         K22L00J KC2022 06 04.16874 15 55 54.87 +09 10 53.8          18.0 RqEL027H36
         K22L00J KC2022 06 04.17243 15 56 00.60 +09 07 57.8          16.6 RqEL027H36
         K22L00J |C2022 06 04.17482 15 56 09.97 +09 06 50.4                VEL027H06
         K22L00J KC2022 06 04.17489 15 56 04.37 +09 06 01.8          17.6 RqEL027H36
         K22L00J KC2022 06 04.17734 15 56 08.13 +09 04 05.2          17.5 RqEL027H36
         K22L00J |C2022 06 04.17977 15 56 17.64 +09 02 55.7          17.9 GVEL027H06
         K22L00J  C2022 06 04.28295515 58 49.834+07 46 20.56         18.2 GVEL027654
         K22L00J  C2022 06 04.28506015 58 52.624+07 44 52.64         18.2 GVEL027654
         K22L00J  C2022 06 04.40078216 01 31.774+06 31 55.52         18.79oVEL027T08
         K22L00J  C2022 06 04.40401116 01 35.369+06 30 00.29         18.87oVEL027T08
         K22L00J  C2022 06 04.43592616 02 09.857+06 10 59.38         19.14oVEL027T08
         K22L00J  C2022 06 04.44329616 02 17.561+06 06 47.16         18.73oVEL027T08
    
    Observer details:
    203 GiaGa Observatory.  Observers S. Foglia, G. Galli.  Measurer G. Galli.
        0.36-m f/5.76 Schmidt-Cassegrain + CCD.
    204 Schiaparelli Observatory.  Observer L. Buzzi.  0.84-m f/3.5 reflector +
        CCD.
    381 Tokyo-Kiso.  Observers J. Beniyama, S. Wada.  1.05-m f/3.1 Schmidt + CCD.
    654 Table Mountain Observatory, Wrightwood-PHMC.  Observers N. Evans, P. Choi,
        N. Saini, C. Zhai, R. Trahan, M. Shao.  1.0-m Reflector + CCD.
    958 Observatoire de Dax.  Observers P. Dupouy, J. B. de Vanssay.  Measurer P.
        Dupouy.  0.43-m f/2.7 Reflector + CCD.
    C95 SATINO Remote Observatory, Haute Provence.  Observer J. Jahn.  0.60-m
        f/3.2 Newtonian reflector + CCD.
    H06 iTelescope Observatory, Mayhill.  Observer H. Sato.  0.43-m f/6.8
        astrograph + CCD + f/4.5 focal reducer.
    H21 Astronomical Research Observatory, Westfield.  Observer R. Holmes.
        Measurers T. Linder, R. Holmes, L. Horn.  0.76-m f/3.0 astrograph + CCD.
    H36 Sandlot Observatory, Scranton.  Observer G. Hug.  .56 meter Reflector +
        CCD.
    K96 Savelli Observatory.  Observers A. Brosio, A. De Pieri.  Measurer A. De
        Pieri.  0.50-m f/2.2 RC + CCD.
    P93 Space Tracking and Communications Center, JAXA.  Observers S. Urakawa, T.
        Nimura.  1.0-m f/3.0 reflector + CCD.
    T08 ATLAS-MLO, Mauna Loa.  Observers L. Denneau, R. Siverd, J. Tonry, H.
        Weiland.  Measurers L. Denneau, N. Erasmus, A. Fitzsimmons, A. Lawrence,
        J. Robinson, R. Siverd, J. Tonry, H. Weiland.  0.5-m Reflector + CCD.
    Y00 SONEAR Observatory, Oliveira.  Observer C. Jacques.  0.45-m f/2.9 0.45-m
        f/2.9 reflector + CCD.
    
    Orbital elements:
    2022 LJ                                                  Earth MOID = 0.0045 AU
    Epoch 2022 Jan. 21.0 TT = JDT 2459600.5                 Veres                   
    M 318.86919              (2000.0)            P               Q                  
    n   0.50860308     Peri.  266.84930     -0.90993255     -0.39553190             
    a   1.5543544      Node   249.82297     +0.41331998     -0.83972970             
    e   0.6199732      Incl.    7.64120     +0.03448694     -0.37203300             
    P   1.94           H   26.00          G   0.15           U   7                  
    Residuals in seconds of arc
    220603 381  0.6+  0.3-    220603 203  0.1-  0.2+    220604 H21  0.4-  0.1-
    220603 381  0.3+  0.6-    220603 203  0.2-  0.0     220604 H21  0.3-  0.2-
    220603 381  0.1-  0.6+    220603 C95  0.1-  0.3-    220604 H21  0.3-  0.0
    220603 381  0.2+  0.1-    220603 203  0.0   0.1-    220604 H21  0.4-  0.0
    220603 381  0.0   0.0     220603 C95  1.7+  0.3-    220604 H21  0.2-  0.1-
    220603 381  0.4-  1.0+    220603 C95  0.3+  0.3-    220604 H36 (1.5+  1.7-)
    220603 381  0.2-  0.6+    220603 C95  0.8+  0.4-    220604 H36  1.1+  1.2-
    220603 381  0.9+  1.8-    220603 C95  0.0   1.1-    220604 H06  0.0   0.3-
    220603 381  0.6+  1.5-    220603 958  1.2+  0.1-    220604 H36  0.4+  0.0
    220603 381  1.1-  0.3+    220603 958  0.2-  0.1-    220604 H36  0.1+  0.2-
    220603 P93  0.1+  0.2-    220603 958  0.9+  0.2+    220604 H06  0.8+  0.4-
    220603 P93  0.3+  1.3-    220603 204  0.3-  0.5+    220604 654  0.4-  0.4+
    220603 P93  0.2+  0.9-    220603 204  0.4-  0.2+    220604 654  0.1-  0.1+
    220603 P93  0.4-  0.4-    220603 204  0.4-  0.2+    220604 T08  0.5-  0.0
    220603 P93  0.1+  1.2-    220603 Y00  0.2+  0.4-    220604 T08  0.2+  1.9+
    220603 P93  0.1-  0.9-    220603 Y00  0.3+  0.8-    220604 T08  0.9+  3.2-
    220603 K96  0.1+  0.4+    220603 Y00  0.3+  0.4-    220604 T08  0.5-  1.3+
    220603 203  0.1-  0.0     220604 H21  0.2-  0.1-
    220603 K96 (2.3+  5.2+)   220604 H21  0.3-  0.0
    
    Ephemeris:
    2022 LJ                  a,e,i = 1.55, 0.62, 8                   q = 0.5907
    Date    TT    R. A. (2000) Decl.     Delta      r    Elong.  Phase     V
    2022 05 05    04 30 26.2 +12 15 43   0.3462  0.7112    25.4   142.6    30.2
    ...
    2022 05 20    04 40 23.9 +12 17 47   0.1555  0.8626    15.1   162.2    33.4
    ...
    2022 05 28    04 47 02.6 +14 42 34   0.06492 0.9494     9.6   169.8
    ...
    2022 06 03    13 24 55.7 +52 08 33   0.0060851.0147    94.1    85.6    18.0
    2022 06 04    15 50 09.4 +11 48 24   0.01392 1.0256   143.1    36.4    18.3
    2022 06 05    16 11 02.5 +02 04 51   0.02435 1.0364   153.6    25.8    19.2
    ...
    2022 06 11    16 30 27.4 -07 05 13   0.09032 1.1009   160.7    17.7    21.9
    ...
    2022 06 19    16 34 57.8 -09 02 05   0.1811  1.1851   157.2    19.4    23.6
    ...
    2022 07 04    16 41 16.0 -10 43 56   0.3637  1.3359   146.8    24.7    25.6
    
    M. P. C. Staff               (C) Copyright 2022 MPC           M.P.E.C. 2022-L27
    


    Read MPEC 2022-L26 Read MPEC 2022-L28


    MPEC number:

    Enter an MPEC number in one of the following forms:

    • 1997-B01 (the full form)
    • J97B01 (the packed version of the full form)
    • B01 (the abbreviated form)